Jackpot

Texas Poker Multi Jackpot System

Kini Telah hadir Jackpot SUPER ROYAL FLUSH

Kini Telah hadir Jackpot 2000 (khusus table VIP keatas).

Ikutilah global jackpot yang tersedia di system kami, dengan system jackpot terbaru dan pertama di indonesia, anda dapat membeli jackpot dengan harga 100 rupiah saja dan menangkan hadiahnya hingga puluhan juta rupiah.

Jackpot bukanlah suatu keharusan untuk dibeli, namun kami memberikan suatu fitur tambahan untuk member tercinta dari www.gembirapoker.info.

Terdapat tiga pilihan harga jackpot yang bisa anda beli yaitu :100,500,1000 dan 2000(khusus table VIP Keatas) rupiah.

Hadiah dari Multi jackpot system www.gembirapoker.info

  1. full house x 10 harga jackpot yang anda beli.
      (contoh:anda membeli 1000 maka:1000 X10 = 10.000)
  2. four of kind x 250 harga jackpot yang anda beli
      (contoh:anda membeli 1000 maka:1000 X250 = 250.000)
  3. Straight flush x 1200
      (contoh:anda membeli 1000 maka:1000 X1200 = 1.200.000)
  4. Royal flush x 10000 harga jackpot yang anda beli
      (contoh:anda membeli 1000 maka:1000 X10000 = 10.000.000)
  5. SUPER ROYAL FLUSH x 30000 harga jackpot yang anda beli
      (contoh:anda membeli 1000 maka:1000 X30000 = 30.000.000)

Kondisi kartu

  1. full house adalah kondisi kartu dimana kartu anda dan kartu tengah dengan total 7 kartu bisa mendapatkan nilai 5 kartu dengan kombinasi 1 tris(three of kind) dan 1 pair, contoh 3 kartu 10 dan 2 kartu 5
  2. Four of kind adalah kondisi kartu dimana kartu anda dan kartu tengah dengan total 7 kartu bisa mendapatkan nilai 5 kartu dengan kombinasi 4 kartu yang sama jumlah dan 1 kartu apapun juga contoh anda mendapatkan 4 buah kartu angka 3 dan 1 kartu apapun.
  3. Staright flush adalah kondisi kartu dimana kartu anda dan kartu tengah dengan total 7 kartu bisa mendapatkan nilai 5 kartu dengan kombinasi seri / staright dengan kembang yang sama contoh : urutan kartu dari angka 5, 6, 7, 8 , 9 10 dengan kembang yg sama misalnya as hati
  4. Royal flush adalah kondisi kartu dimana kartu anda dan kartu tengah dengan total 7 kartu bisa mendapatkan nilai 5 kartu dengan kombinasi seri / staright dengan kembang yang sama tetapi kartu tersebut haruslah dimulai dari 10. contoh 10, Queen, Jack, King dan aces dengan kembang yang sama
  5. Super Royal flush adalah kondisi kartu dimana Kedua kartu anda digabung dengan 3 kartu pertama meja haruslah royal flush. contoh kartu anda 10,Queen kembang sama dan 3 kartu pertama meja adalah Jack, King dan aces dengan kembang yang sama

Demikian adalah penjelasan dari Multi Jackpot www.gembirapoker.info terima kasih dan selamat bermain salam hoki dari kami

Texas Poker Jackpot Winner

TOP SUPER ROYAL FLUSH
No.TanggalNamaPriceWin
117/07 02:43JOZZZ99Super Royal flush6,000,000
217/07 01:45SOSIM8899Super Royal flush15,000,000
316/07 23:46AA7C7D8ESuper Royal flush15,000,000
416/07 23:31KOKO_887Super Royal flush60,000,000
516/07 22:35BROTHERPROSuper Royal flush60,000,000
TOP ROYAL FLUSH
No.TanggalNamaPriceWin
117/07 04:17F4113N28Royal flush5,000,000
217/07 03:51CHINOT99Royal flush2,000,000
317/07 03:40LAKALOTIRoyal flush20,000,000
417/07 03:31AROM82Royal flush10,000,000
517/07 03:21CAHJ005Royal flush2,000,000
TOP STRAIGHT FLUSH
No.TanggalNamaPriceWin
117/07 04:41CEWCEWStraight Flush600,000
217/07 04:39JOHNTOR88Straight Flush120,000
317/07 04:35EPHHE88Straight Flush2,400,000
417/07 04:35BAJINK888Straight Flush600,000
517/07 04:32PILATXXStraight Flush240,000
LATEST JACKPOT
No.TanggalNamaPriceWin
117/07 04:44LNB123Full House5,000
217/07 04:44LAMPENG111Full House10,000
317/07 04:44ATMRCFull House2,000
417/07 04:44THEBOM003Four Of A Kind50,000
517/07 04:44CHUCKFull House10,000
617/07 04:44AQZZ180104Four Of A Kind250,000
717/07 04:43DDT24Full House5,000
817/07 04:43FST_AAFull House5,000
917/07 04:43C84BI225Full House5,000
1017/07 04:43EVANSAJAFull House2,000
1117/07 04:43LAPANG1000Four Of A Kind12,500
1217/07 04:43COKRY82Full House5,000
1317/07 04:43C234FFC1Full House10,000
1417/07 04:43BARAT444Full House5,000
1517/07 04:43DEVIN2O18Full House10,000
1617/07 04:43TEMPOK000Full House1,000
1717/07 04:43DTOK22Full House2,000
1817/07 04:43IMBO2626Full House1,000
1917/07 04:43KALEM410Full House1,000
2017/07 04:43J4Y4_54Full House5,000
2117/07 04:43A59A086AFull House10,000
2217/07 04:43IKMAL114Full House2,000
2317/07 04:43DOBLEH760Full House2,000
2417/07 04:43FAST990Full House5,000
2517/07 04:43AAAALTKC61Full House10,000
2617/07 04:43MDRAGUS99Full House10,000
2717/07 04:43AMMO28Four Of A Kind500,000
2817/07 04:43MUSA2181Four Of A Kind25,000
2917/07 04:43BUZZ58Full House10,000
3017/07 04:43P4U5_KUFull House5,000
3117/07 04:43XPANR2018Full House5,000
3217/07 04:43MSCVJM05YCFull House5,000
3317/07 04:43A2099874Full House1,000
3417/07 04:43HOWRANGFull House5,000
3517/07 04:43S0N950N9Full House5,000
3617/07 04:43MULU5588Full House1,000
3717/07 04:43WAKGUB12Full House2,000
3817/07 04:43BH312N4DFull House20,000
3917/07 04:43DWBTUD7736Full House2,000
4017/07 04:43PERCIK33Four Of A Kind125,000
4117/07 04:43BOLOT1969Full House5,000
4217/07 04:43AKAMSI_19Full House500
4317/07 04:43STRESFLSHFull House5,000
4417/07 04:43DWIHASAN23Full House2,000
4517/07 04:43B67471A0Full House1,000
4617/07 04:43MIKEH_KUFull House10,000
4717/07 04:43SURAKMINFull House1,000
4817/07 04:43IMAM2159Full House5,000
4917/07 04:42TANI_11Full House2,000
5017/07 04:42ERIL201Full House5,000

Domino Multi Jackpot System

Ikutilah global jackpot yang tersedia di system kami, dengan system jackpot terbaru dan pertama di indonesia, anda dapat membeli jackpot dengan harga 100 rupiah saja dan menangkan hadiahnya hingga puluhan juta rupiah.

Jackpot bukanlah suatu keharusan untuk dibeli, namun kami memberikan suatu fitur tambahan untuk member tercinta dari www.gembirapoker.info.

Terdapat tiga pilihan harga jackpot yang bisa anda beli yaitu :100,500 dan 1000 rupiah.

Hadiah dari Multi jackpot system www.gembirapoker.info

  1. Murni Kecil x 50 harga jackpot yang anda beli.
      (contoh:anda membeli 1000 maka:1000 X 50 = 50.000)
  2. Murni Besar x 50 harga jackpot yang anda beli
      (contoh:anda membeli 1000 maka:1000 X 50 = 50.000)
  3. BALAK x 100 harga jackpot yang anda beli
      (contoh:anda membeli 1000 maka:1000 X 100 = 100.000)
  4. ENAM DEWA x 6666 harga jackpot yang anda beli
      (contoh:anda membeli 1000 maka:1000 X 6666 = 6.666.000)

Demikian adalah penjelasan dari Multi Jackpot www.gembirapoker.info terima kasih dan selamat bermain salam hoki dari kami

Domino Jackpot Winner

TOP ENAM DEWA
No.TanggalNamaPriceWin
117/07 03:44CANGKER21murni enam3,333,000
217/07 03:01KAYUU615murni enam6,666,000
317/07 02:46BUSET41murni enam6,666,000
417/07 01:53BALANDO87murni enam3,333,000
517/07 01:12CHALISA99murni enam6,666,000
TOP BALAK
No.TanggalNamaPriceWin
117/07 04:43HERI77ANDAbalak100,000
217/07 04:41WALLA12balak100,000
317/07 04:39BADEN6666balak100,000
417/07 04:36T4DBNI0632balak100,000
517/07 04:34ZUIbalak100,000
LATEST JACKPOT
No.TanggalNamaPriceWin
117/07 04:43CE114347murni besar50,000
217/07 04:43ROBI857murni kecil50,000
317/07 04:43GODAK93murni kecil50,000
417/07 04:43BADEN6666murni besar50,000
517/07 04:43HERI77ANDAbalak100,000
617/07 04:43D2A0AAF7murni besar25,000
717/07 04:42TITO2807murni kecil50,000
817/07 04:42MERCON10murni kecil50,000
917/07 04:41WALLA12balak100,000
1017/07 04:41GO99SENDmurni kecil50,000
1117/07 04:41OCCY88murni besar5,000
1217/07 04:41AN994Xmurni besar50,000
1317/07 04:39BADEN6666balak100,000
1417/07 04:39EKONTOLPLOmurni besar25,000
1517/07 04:39JIE69lucky9925,000
1617/07 04:39GHAITSA6murni besar50,000
1717/07 04:39BINUANG66murni besar50,000
1817/07 04:38JO599murni besar5,000
1917/07 04:38ASSKA1murni besar50,000
2017/07 04:38ASSKA1murni kecil50,000
2117/07 04:37ERWINNST28lucky992,500
2217/07 04:37CBD5FB36murni besar50,000
2317/07 04:37GG9ZMFPB2Mmurni kecil50,000
2417/07 04:37VJJJJJJmurni besar25,000
2517/07 04:36T4DBNI0632balak100,000
2617/07 04:36TIGOLAWANGmurni kecil50,000
2717/07 04:36D4BLENGmurni kecil50,000
2817/07 04:35R4ZZORmurni besar25,000
2917/07 04:35JOHN_GUImurni besar25,000
3017/07 04:35HABIBI02murni besar50,000
3117/07 04:34ZUIbalak100,000
3217/07 04:34KHADDAFIIbalak100,000
3317/07 04:33AZKHA883balak100,000
3417/07 04:33BADEN6666murni kecil50,000
3517/07 04:33KHADDAFIImurni kecil50,000
3617/07 04:32VANQUDUYmurni besar50,000
3717/07 04:32MAJUDADIbalak100,000
3817/07 04:32T4DMERCON99murni kecil50,000
3917/07 04:32PESA7000balak100,000
4017/07 04:31T4DDHANYJPlucky9910,000
4117/07 04:31SUBARJACKmurni besar50,000
4217/07 04:31YLI6666balak50,000
4317/07 04:31BANDAROLAPmurni besar25,000
4417/07 04:29KATRINS1murni kecil50,000
4517/07 04:29BERRY2017lucky992,500
4617/07 04:28BER4POmurni kecil50,000
4717/07 04:28TOULAYmurni kecil50,000
4817/07 04:28MARWACUANTmurni kecil50,000
4917/07 04:28ERWINNST28murni kecil5,000
5017/07 04:28K5Kmurni kecil5,000

Ceme Multi Jackpot System

Jackpot dilihat dari gabungan kartu pemain dengan kartu bandar. Bandar harus membeli jackpot sebanyak jumlah player yang sedang duduk. Sebagai contoh bila terdapat 3 pemain duduk bermain, dan bandar memutuskan untuk membeli jackpot Rp 1.000, maka pada periode tersebut bandar akan membeli jackpot sebanyak 3xRp1.000 = Rp3.000.

Jackpot bukanlah suatu keharusan untuk dibeli, namun kami memberikan suatu fitur tambahan untuk member tercinta dari www.gembirapoker.info.

Terdapat tiga pilihan harga jackpot yang bisa anda beli yaitu :100,500 dan 1000 rupiah.

Hadiah dari Multi jackpot system www.gembirapoker.info

  1. Murni Kecil x 50 harga jackpot yang anda beli.
      (contoh:anda membeli 1000 maka:1000 X 50 = 50.000)
  2. Murni Besar x 50 harga jackpot yang anda beli
      (contoh:anda membeli 1000 maka:1000 X 50 = 50.000)
  3. BALAK x 200 harga jackpot yang anda beli
      (contoh:anda membeli 1000 maka:1000 X 200 = 200.000)
  4. ENAM DEWA x 6666 harga jackpot yang anda beli
      (contoh:anda membeli 1000 maka:1000 X 6666 = 6.666.000)

Demikian adalah penjelasan dari Multi Jackpot www.gembirapoker.info terima kasih dan selamat bermain salam hoki dari kami

Ceme Jackpot Winner

TOP ENAM DEWA
No.TanggalNamaPriceWin
117/07 04:30POMP4KANmurni enam666,600
217/07 04:28R4D3N092murni enam6,666,000
317/07 04:28MADAM_JHmurni enam6,666,000
417/07 04:23R4D3N092murni enam6,666,000
517/07 04:23BAYANSMARTmurni enam3,333,000
TOP BALAK
No.TanggalNamaPriceWin
117/07 04:43RAAJ89balak200,000
217/07 04:43ZYUM1C4BHFbalak200,000
317/07 04:42IRUKbalak20,000
417/07 04:41RIKJOSS99balak200,000
517/07 04:40MARCELJP73balak200,000
LATEST JACKPOT
No.TanggalNamaPriceWin
117/07 04:44SIENTA333murni kecil50,000
217/07 04:43RAAJ89balak200,000
317/07 04:43ZYUM1C4BHFbalak200,000
417/07 04:43GOLEK225murni kecil50,000
517/07 04:43DJUAN01murni kecil50,000
617/07 04:43B3RE88murni besar25,000
717/07 04:43PUJA123456murni besar25,000
817/07 04:43RINMI01murni besar25,000
917/07 04:43W3N130murni besar50,000
1017/07 04:43DAWAX89murni kecil5,000
1117/07 04:43BXG44G11BDmurni kecil50,000
1217/07 04:43QQNEMEPmurni kecil50,000
1317/07 04:43DUAREBU778murni besar50,000
1417/07 04:43DEW4DEW188murni besar50,000
1517/07 04:42BEJO5958murni kecil50,000
1617/07 04:42SHIMA24murni kecil50,000
1717/07 04:42JELITAAAAmurni kecil50,000
1817/07 04:42INGGOJEPOTmurni kecil50,000
1917/07 04:42QIANZI0murni besar5,000
2017/07 04:42BXG44G11BDmurni besar50,000
2117/07 04:42CHABE_889murni besar25,000
2217/07 04:42MUR82murni besar25,000
2317/07 04:42IRUKbalak20,000
2417/07 04:42W4NTO54murni besar50,000
2517/07 04:42RZMYO2murni kecil50,000
2617/07 04:42K13K13murni kecil50,000
2717/07 04:42BH314NKmurni kecil5,000
2817/07 04:42TANTENINA9murni kecil50,000
2917/07 04:41DANCOK_murni kecil5,000
3017/07 04:41WAEWANGmurni besar25,000
3117/07 04:41RIKJOSS99balak200,000
3217/07 04:41SEBARASmurni kecil5,000
3317/07 04:41DEMOK88murni kecil50,000
3417/07 04:41CABEK98murni kecil25,000
3517/07 04:41RAMSEImurni besar50,000
3617/07 04:41SKYN3T83murni besar50,000
3717/07 04:41MANGARENmurni besar25,000
3817/07 04:41BA7IN6murni kecil5,000
3917/07 04:41PUTRA9195murni kecil25,000
4017/07 04:40DEPHUBmurni kecil50,000
4117/07 04:40SAJJANAmurni besar25,000
4217/07 04:40MARCELJP73balak200,000
4317/07 04:40DIRLY96murni besar25,000
4417/07 04:40BUSEEmurni besar50,000
4517/07 04:40ALEXA_123murni kecil50,000
4617/07 04:40ALEXA_123murni kecil50,000
4717/07 04:40LBOLD218murni kecil50,000
4817/07 04:40UNA9IRVIKJmurni kecil50,000
4917/07 04:40ANJAY0996murni kecil5,000
5017/07 04:40ZON521murni besar50,000